DW8010 Weather Reports


Display with metric or nautical units.
time (UTC)temp
F
wind
direction
speed
MPH
gust
MPH
rain 1hr
in
rain 24hr
in
rain mn
in
humidity
%
barometer
mb
20260506221540 100 0.0 0.0 0.00 0.00 0.00 54 1005.1
20260506221030 100 0.0 0.0 0.00 0.00 0.00 55 1005.2
20260506220527 100 0.0 0.0 0.00 0.00 0.00 55 1005.1
20260506220040 100 0.0 0.0 0.00 0.00 0.00 55 1005.1
20260506215530 99 0.0 0.0 0.00 0.00 0.00 56 1005.2
20260506215030 99 0.0 0.0 0.00 0.00 0.00 55 1005.2
20260506214605 99 0.0 0.0 0.00 0.00 0.00 55 1005.3
20260506214030 99 0.0 0.0 0.00 0.00 0.00 56 1005.3
20260506213529 99 0.0 0.0 0.00 0.00 0.00 54 1005.3
20260506213043 99 0.0 0.0 0.00 0.00 0.00 56 1005.4
20260506212530 99 0.0 0.0 0.00 0.00 0.00 54 1005.4
20260506212031 99 0.0 0.0 0.00 0.00 0.00 56 1005.4
20260506211546 100 0.0 0.0 0.00 0.00 0.00 54 1005.4
20260506211027 100 0.0 0.0 0.00 0.00 0.00 56 1005.3
20260506210527 99 0.0 0.0 0.00 0.00 0.00 56 1005.4
20260506210045 99 0.0 0.0 0.00 0.00 0.00 57 1005.6
20260506205527 99 0.0 0.0 0.00 0.00 0.00 55 1005.7
20260506205031 100 0.0 0.0 0.00 0.00 0.00 56 1005.7
20260506204540 100 0.0 0.0 0.00 0.00 0.00 56 1005.8
20260506204029 99 0.0 0.0 0.00 0.00 0.00 55 1005.8
20260506203529 98 0.0 0.0 0.00 0.00 0.00 56 1005.8
20260506203052 98 0.0 0.0 0.00 0.00 0.00 56 1005.9
20260506202531 98 0.0 0.0 0.00 0.00 0.00 59 1005.9
20260506202031 98 0.0 0.0 0.00 0.00 0.00 58 1006.0
20260506201549 98 0.0 0.0 0.00 0.00 0.00 58 1006.1
20260506201030 97 0.0 0.0 0.00 0.00 0.00 57 1006.0
20260506200531 97 0.0 0.0 0.00 0.00 0.00 57 1006.1
20260506200037 97 0.0 0.0 0.00 0.00 0.00 57 1006.1
20260506195531 98 0.0 0.0 0.00 0.00 0.00 59 1006.2
20260506195029 97 0.0 0.0 0.00 0.00 0.00 58 1006.1
20260506194557 97 0.0 0.0 0.00 0.00 0.00 58 1006.4
20260506194035 97 0.0 0.0 0.00 0.00 0.00 61 1006.6
20260506193533 97 0.0 0.0 0.00 0.00 0.00 59 1006.7
20260506193041 96 0.0 0.0 0.00 0.00 0.00 62 1006.8
20260506192531 96 0.0 0.0 0.00 0.00 0.00 62 1006.8
20260506192031 96 0.0 0.0 0.00 0.00 0.00 60 1006.9
20260506191539 96 0.0 0.0 0.00 0.00 0.00 60 1006.9
20260506191030 96 0.0 0.0 0.00 0.00 0.00 60 1006.9
20260506190533 96 0.0 0.0 0.00 0.00 0.00 59 1007.0
20260506190042 95 0.0 0.0 0.00 0.00 0.00 62 1007.2
20260506185530 95 0.0 0.0 0.00 0.00 0.00 60 1007.2
20260506185031 94 0.0 0.0 0.00 0.00 0.00 63 1007.2
20260506184543 94 0.0 0.0 0.00 0.00 0.00 64 1007.1
20260506184032 94 0.0 0.0 0.00 0.00 0.00 63 1007.1
20260506183532 93 0.0 0.0 0.00 0.00 0.00 64 1007.2
20260506183041 93 0.0 0.0 0.00 0.00 0.00 64 1007.3
20260506182530 93 0.0 0.0 0.00 0.00 0.00 66 1007.4
20260506182030 92 0.0 0.0 0.00 0.00 0.00 65 1007.7
20260506181545 92 0.0 0.0 0.00 0.00 0.00 67 1007.7
20260506181031 92 0.0 0.0 0.00 0.00 0.00 66 1007.6
20260506180531 92 0.0 0.0 0.00 0.00 0.00 66 1007.7
20260506180043 92 0.0 0.0 0.00 0.00 0.00 68 1007.7
20260506175532 91 0.0 0.0 0.00 0.00 0.00 69 1007.8
20260506175030 91 0.0 0.0 0.00 0.00 0.00 70 1007.8
20260506174539 90 0.0 0.0 0.00 0.00 0.00 70 1007.8
20260506174030 90 0.0 0.0 0.00 0.00 0.00 70 1007.8
20260506173531 90 0.0 0.0 0.00 0.00 0.00 70 1007.9
20260506173045 90 0.0 0.0 0.00 0.00 0.00 72 1008.0
20260506172531 88 0.0 0.0 0.00 0.00 0.00 72 1008.0
20260506172031 88 0.0 0.0 0.00 0.00 0.00 73 1008.1
20260506171552 87 0.0 0.0 0.00 0.00 0.00 74 1008.1
20260506171033 88 0.0 0.0 0.00 0.00 0.00 74 1008.0
20260506170533 87 0.0 0.0 0.00 0.00 0.00 76 1008.0
20260506170040 87 0.0 0.0 0.00 0.00 0.00 75 1007.9
20260506165530 86 0.0 0.0 0.00 0.00 0.00 76 1007.9
20260506165031 86 0.0 0.0 0.00 0.00 0.00 76 1008.0
20260506164538 85 0.0 0.0 0.00 0.00 0.00 77 1008.2
20260506164030 85 0.0 0.0 0.00 0.00 0.00 78 1008.1
20260506163530 85 0.0 0.0 0.00 0.00 0.00 78 1008.1
20260506163043 85 0.0 0.0 0.00 0.00 0.00 78 1008.1
20260506162532 84 0.0 0.0 0.00 0.00 0.00 79 1008.1
20260506162030 84 0.0 0.0 0.00 0.00 0.00 79 1008.0
20260506161541 84 0.0 0.0 0.00 0.00 0.00 79 1008.1
20260506161031 84 0.0 0.0 0.00 0.00 0.00 79 1008.0
20260506160531 84 0.0 0.0 0.00 0.00 0.00 79 1008.0
20260506160042 84 0.0 0.0 0.00 0.00 0.00 80 1008.0
20260506155530 83 0.0 0.0 0.00 0.00 0.00 80 1008.0
20260506155031 83 0.0 0.0 0.00 0.00 0.00 80 1008.0
20260506154547 83 0.0 0.0 0.00 0.00 0.00 80 1008.0
20260506154031 83 0.0 0.0 0.00 0.00 0.00 81 1008.0
20260506153531 83 0.0 0.0 0.00 0.00 0.00 82 1008.0
20260506153038 82 0.0 0.0 0.00 0.00 0.00 82 1007.8
20260506152530 82 0.0 0.0 0.00 0.00 0.00 82 1007.8
20260506152030 82 0.0 0.0 0.00 0.00 0.00 82 1007.8
20260506151545 82 0.0 0.0 0.00 0.00 0.00 82 1007.8
20260506151031 81 0.0 0.0 0.00 0.00 0.00 83 1007.9
20260506150532 81 0.0 0.0 0.00 0.00 0.00 83 1007.9
20260506150047 81 0.0 0.0 0.00 0.00 0.00 83 1008.1
20260506145536 81 0.0 0.0 0.00 0.00 0.00 83 1008.0
20260506145030 81 0.0 0.0 0.00 0.00 0.00 84 1008.2
20260506144547 81 0.0 0.0 0.00 0.00 0.00 84 1008.2
20260506144030 80 0.0 0.0 0.00 0.00 0.00 84 1008.3
20260506143533 80 0.0 0.0 0.00 0.00 0.00 84 1008.3
20260506143039 80 0.0 0.0 0.00 0.00 0.00 84 1008.4
20260506142531 80 0.0 0.0 0.00 0.00 0.00 84 1008.5
20260506142030 80 0.0 0.0 0.00 0.00 0.00 84 1008.5
20260506141614 80 0.0 0.0 0.00 0.00 0.00 84 1008.3
20260506141031 80 0.0 0.0 0.00 0.00 0.00 84 1008.4
20260506140531 80 0.0 0.0 0.00 0.00 0.00 84 1008.5
20260506140057 80 0.0 0.0 0.00 0.00 0.00 84 1008.5
20260506135530 80 0.0 0.0 0.00 0.00 0.00 84 1008.4
20260506135030 80 0.0 0.0 0.00 0.00 0.00 84 1008.3
20260506134543 80 0.0 0.0 0.00 0.00 0.00 84 1008.2
20260506134031 80 0.0 0.0 0.00 0.00 0.00 85 1008.2
20260506133531 80 0.0 0.0 0.00 0.00 0.00 85 1008.2
20260506133046 80 0.0 0.0 0.00 0.00 0.00 85 1008.3
20260506132530 80 0.0 0.0 0.00 0.00 0.00 85 1008.3
20260506132030 80 0.0 0.0 0.00 0.00 0.00 85 1008.2
20260506131541 80 0.0 0.0 0.00 0.00 0.00 85 1008.1
20260506131031 80 0.0 0.0 0.00 0.00 0.00 85 1008.2
20260506130531 80 0.0 0.0 0.00 0.00 0.00 85 1008.2
20260506130040 80 0.0 0.0 0.00 0.00 0.00 85 1008.1
20260506125531 80 0.0 0.0 0.00 0.00 0.00 85 1008.1
20260506125030 80 0.0 0.0 0.00 0.00 0.00 85 1008.1
20260506124546 80 0.0 0.0 0.00 0.00 0.00 85 1008.0
20260506124028 80 0.0 0.0 0.00 0.00 0.00 85 1008.0
20260506123528 80 0.0 0.0 0.00 0.00 0.00 85 1007.9
20260506123045 80 0.0 0.0 0.00 0.00 0.00 85 1007.7
20260506122528 80 0.0 0.0 0.00 0.00 0.00 85 1007.6
20260506122028 80 0.0 0.0 0.00 0.00 0.00 85 1007.4
20260506121551 80 0.0 0.0 0.00 0.00 0.00 85 1007.3
20260506121030 80 0.0 0.0 0.00 0.00 0.00 85 1007.2
20260506120528 79 0.0 0.0 0.00 0.00 0.00 85 1007.1
20260506120042 79 0.0 0.0 0.00 0.00 0.00 85 1006.9
20260506115529 79 0.0 0.0 0.00 0.00 0.00 85 1006.9
20260506115027 79 0.0 0.0 0.00 0.00 0.00 85 1007.0
20260506114538 79 0.0 0.0 0.00 0.00 0.00 85 1006.7
20260506114030 79 0.0 0.0 0.00 0.00 0.00 85 1006.6
20260506113528 79 0.0 0.0 0.00 0.00 0.00 85 1006.5
20260506113051 79 0.0 0.0 0.00 0.00 0.00 85 1006.5
20260506112532 79 0.0 0.0 0.00 0.00 0.00 85 1006.5
20260506112028 79 0.0 0.0 0.00 0.00 0.00 85 1006.4
20260506111544 79 0.0 0.0 0.00 0.00 0.00 85 1006.3
20260506111028 79 0.0 0.0 0.00 0.00 0.00 85 1006.3
20260506110528 79 0.0 0.0 0.00 0.00 0.00 85 1006.2
20260506110041 79 0.0 0.0 0.00 0.00 0.00 84 1006.1
20260506105527 79 0.0 0.0 0.00 0.00 0.00 84 1006.0
20260506105028 79 0.0 0.0 0.00 0.00 0.00 84 1005.8
20260506104546 79 0.0 0.0 0.00 0.00 0.00 84 1005.9
20260506104027 79 0.0 0.0 0.00 0.00 0.00 84 1005.8
20260506103529 79 0.0 0.0 0.00 0.00 0.00 84 1005.8
20260506103041 79 0.0 0.0 0.00 0.00 0.00 84 1005.7
20260506102529 79 0.0 0.0 0.00 0.00 0.00 84 1005.5
20260506102029 79 0.0 0.0 0.00 0.00 0.00 84 1005.4
20260506101547 79 0.0 0.0 0.00 0.00 0.00 84 1005.4
20260506101028 79 0.0 0.0 0.00 0.00 0.00 84 1005.5
20260506100528 80 0.0 0.0 0.00 0.00 0.00 84 1005.5
20260506100037 79 0.0 0.0 0.00 0.00 0.00 84 1005.5
20260506095528 80 0.0 0.0 0.00 0.00 0.00 84 1005.4
20260506095028 80 0.0 0.0 0.00 0.00 0.00 84 1005.4
20260506094542 80 0.0 0.0 0.00 0.00 0.00 84 1005.4
20260506094027 80 0.0 0.0 0.00 0.00 0.00 84 1005.4
20260506093528 80 0.0 0.0 0.00 0.00 0.00 84 1005.4
20260506093041 80 0.0 0.0 0.00 0.00 0.00 84 1005.5
20260506092528 80 0.0 0.0 0.00 0.00 0.00 84 1005.6
20260506092028 80 0.0 0.0 0.00 0.00 0.00 84 1005.5
20260506091538 80 0.0 0.0 0.00 0.00 0.00 84 1005.5
20260506091028 80 0.0 0.0 0.00 0.00 0.00 84 1005.5
20260506090531 80 0.0 0.0 0.00 0.00 0.00 84 1005.5
20260506090038 80 0.0 0.0 0.00 0.00 0.00 84 1005.5
20260506085528 80 0.0 0.0 0.00 0.00 0.00 84 1005.6
20260506085031 80 0.0 0.0 0.00 0.00 0.00 84 1005.5
20260506084542 80 0.0 0.0 0.00 0.00 0.00 84 1005.6
20260506084028 80 0.0 0.0 0.00 0.00 0.00 84 1005.6
20260506083530 80 0.0 0.0 0.00 0.00 0.00 84 1005.6
20260506083047 80 0.0 0.0 0.00 0.00 0.00 84 1005.7
20260506082528 80 0.0 0.0 0.00 0.00 0.00 84 1005.8
20260506082028 80 0.0 0.0 0.00 0.00 0.00 84 1005.7
20260506081543 80 0.0 0.0 0.00 0.00 0.00 84 1005.8
20260506081033 80 0.0 0.0 0.00 0.00 0.00 84 1005.8
20260506080528 80 0.0 0.0 0.00 0.00 0.00 84 1005.7
20260506073528 80 0.0 0.0 0.00 0.00 0.00 84 1006.1
20260506073039 80 0.0 0.0 0.00 0.00 0.00 83 1006.0
20260506072528 80 0.0 0.0 0.00 0.00 0.00 83 1006.1
20260506072028 80 0.0 0.0 0.00 0.00 0.00 83 1006.2
20260506071538 80 0.0 0.0 0.00 0.00 0.00 83 1006.2
20260506071031 80 0.0 0.0 0.00 0.00 0.00 83 1006.2
20260506070528 80 0.0 0.0 0.00 0.00 0.00 83 1006.3
20260506062030 80 0.0 0.0 0.00 0.00 0.00 82 1006.7
20260506061538 80 0.0 0.0 0.00 0.00 0.00 82 1006.9
20260506061028 80 0.0 0.0 0.00 0.00 0.00 82 1007.1
20260506060528 80 0.0 0.0 0.00 0.00 0.00 82 1007.1
20260506051030 81 0.0 0.0 0.00 0.00 0.00 81 1007.4
20260506050530 81 0.0 0.0 0.00 0.00 0.00 81 1007.5
20260506045029 81 0.0 0.0 0.00 0.00 0.00 81 1007.4
20260506044537 81 0.0 0.0 0.00 0.00 0.00 80 1007.2
20260506044028 81 0.0 0.0 0.00 0.00 0.00 80 1007.2
20260506043528 81 0.0 0.0 0.00 0.00 0.00 80 1007.3
20260506043042 81 0.0 0.0 0.00 0.00 0.00 80 1007.5
20260506042528 81 0.0 0.0 0.00 0.00 0.00 80 1007.4
20260506042028 81 0.0 0.0 0.00 0.00 0.00 80 1007.6
20260506041540 81 0.0 0.0 0.00 0.00 0.00 80 1007.6
20260506041027 81 0.0 0.0 0.00 0.00 0.00 80 1007.5
20260506040527 81 0.0 0.0 0.00 0.00 0.00 80 1007.4
20260506040042 81 0.0 0.0 0.00 0.00 0.00 79 1007.4
20260506035530 81 0.0 0.0 0.00 0.00 0.00 79 1007.3
20260506035029 81 0.0 0.0 0.00 0.00 0.00 79 1007.3
20260506034538 81 0.0 0.0 0.00 0.00 0.00 79 1007.1
20260506034028 81 0.0 0.0 0.00 0.00 0.00 79 1007.2
20260506033528 81 0.0 0.0 0.00 0.00 0.00 79 1007.1
20260506033044 81 0.0 0.0 0.00 0.00 0.00 79 1007.0
20260506032528 82 0.0 0.0 0.00 0.00 0.00 79 1007.0
20260506032028 82 0.0 0.0 0.00 0.00 0.00 79 1007.0
20260506031542 82 0.0 0.0 0.00 0.00 0.00 79 1006.9
20260506031027 82 0.0 0.0 0.00 0.00 0.00 79 1006.6
20260506030527 82 0.0 0.0 0.00 0.00 0.00 78 1006.5
20260506030040 82 0.0 0.0 0.00 0.00 0.00 78 1006.6
20260506025527 82 0.0 0.0 0.00 0.00 0.00 78 1006.6
20260506025031 82 0.0 0.0 0.00 0.00 0.00 78 1006.6
20260506024538 82 0.0 0.0 0.00 0.00 0.00 78 1006.6
20260506024028 82 0.0 0.0 0.00 0.00 0.00 78 1006.5
20260506023529 82 0.0 0.0 0.00 0.00 0.00 78 1006.4
20260506023049 82 0.0 0.0 0.00 0.00 0.00 77 1006.3
20260506022528 82 0.0 0.0 0.00 0.00 0.00 77 1006.4
20260506022029 82 0.0 0.0 0.00 0.00 0.00 77 1006.3
20260506021550 83 0.0 0.0 0.00 0.00 0.00 77 1006.3
20260506021028 83 0.0 0.0 0.00 0.00 0.00 77 1006.1
20260506020527 83 0.0 0.0 0.00 0.00 0.00 77 1006.1
20260506020040 83 0.0 0.0 0.00 0.00 0.00 76 1005.8
20260506015529 83 0.0 0.0 0.00 0.00 0.00 76 1005.8
20260506015031 83 0.0 0.0 0.00 0.00 0.00 76 1005.5
20260506014540 83 0.0 0.0 0.00 0.00 0.00 75 1005.5
20260506014028 83 0.0 0.0 0.00 0.00 0.00 75 1005.5
20260506013528 83 0.0 0.0 0.00 0.00 0.00 75 1005.4
20260506013038 84 0.0 0.0 0.00 0.00 0.00 75 1005.5
20260506012528 84 0.0 0.0 0.00 0.00 0.00 75 1005.4
20260506012029 84 0.0 0.0 0.00 0.00 0.00 74 1005.3
20260506011542 84 0.0 0.0 0.00 0.00 0.00 74 1005.1
20260506011029 84 0.0 0.0 0.00 0.00 0.00 74 1005.1
20260506010528 84 0.0 0.0 0.00 0.00 0.00 73 1005.0
20260506010050 84 0.0 0.0 0.00 0.00 0.00 73 1004.9
20260506005528 85 0.0 0.0 0.00 0.00 0.00 73 1004.9
20260506005027 85 0.0 0.0 0.00 0.00 0.00 73 1004.9
20260506004546 85 0.0 0.0 0.00 0.00 0.00 72 1004.8
20260506004027 85 0.0 0.0 0.00 0.00 0.00 72 1004.7
20260506003529 86 0.0 0.0 0.00 0.00 0.00 71 1004.7
20260506003038 86 0.0 0.0 0.00 0.00 0.00 71 1004.6
20260506002528 86 0.0 0.0 0.00 0.00 0.00 70 1004.7
20260506002029 87 0.0 0.0 0.00 0.00 0.00 70 1004.5
20260506001546 87 0.0 0.0 0.00 0.00 0.00 69 1004.5
20260506001028 87 0.0 0.0 0.00 0.00 0.00 69 1004.5
20260506000528 88 0.0 0.0 0.00 0.00 0.00 69 1004.4
20260506000043 88 0.0 0.0 0.00 0.00 0.00 69 1004.3
20260505235528 88 0.0 0.0 0.00 0.00 0.00 68 1004.5
20260505235028 88 0.0 0.0 0.00 0.00 0.00 68 1004.4
20260505234600 88 0.0 0.0 0.00 0.00 0.00 67 1004.3
20260505234030 89 0.0 0.0 0.00 0.00 0.00 67 1004.3
20260505233528 89 0.0 0.0 0.00 0.00 0.00 66 1004.2
20260505233041 89 0.0 0.0 0.00 0.00 0.00 66 1004.2
20260505232527 89 0.0 0.0 0.00 0.00 0.00 66 1004.2
20260505232028 89 0.0 0.0 0.00 0.00 0.00 65 1004.1
20260505231538 90 0.0 0.0 0.00 0.00 0.00 65 1004.3
20260505231029 90 0.0 0.0 0.00 0.00 0.00 65 1004.2
20260505230527 90 0.0 0.0 0.00 0.00 0.00 64 1004.3
20260505230044 91 0.0 0.0 0.00 0.00 0.00 64 1004.3
20260505225528 91 0.0 0.0 0.00 0.00 0.00 64 1004.3
20260505225029 91 0.0 0.0 0.00 0.00 0.00 65 1004.2
20260505224540 91 0.0 0.0 0.00 0.00 0.00 65 1004.3
20260505224030 91 0.0 0.0 0.00 0.00 0.00 64 1004.4
20260505223529 92 0.0 0.0 0.00 0.00 0.00 63 1004.5
20260505223047 92 0.0 0.0 0.00 0.00 0.00 63 1004.5
20260505222527 92 0.0 0.0 0.00 0.00 0.00 63 1004.5
20260505222029 91 0.0 0.0 0.00 0.00 0.00 63 1004.5